sat.trackr.live / text

‹ back to catalog

STARLINK-35974

NORAD 66862 · 2025-281Q

PAYLOAD ACTIVE UNKNOWN

§ Identity

Operator
Country
US
Launch date
2025-12-02
Launch site
AFETR
Launch vehicle
Mass (kg)
RCS (m²)

Purposes: comms

External: N2YO · Heavens-Above · Gunter

§ Orbital elements

Epoch: 2026-05-25T01:09:42.720768Z

Period
94.27 min
Inclination
43.0012°
Eccentricity
0.0000729
Mean motion
15.27585124 rev/d
Perigee alt
482.5 km
Apogee alt
483.5 km
Semi-major
6,861.2 km
B*
3.9926e-4
RAAN
272.2347°
Arg perigee
345.3556°
Mean anomaly
14.7274°
Rev number
2,786

§ Raw data

STARLINK-359741 66862U 25281Q   26145.04841112  .00010743  00000+0  39926-3 0  99912 66862  43.0012 272.2347 0000729 345.3556  14.7274 15.27585124 27864

JSON: /api/v1/satellites/66862 · /tle

For live sub-satellite position, see the globe view (requires WebGL).

§ Visibility from observer

Set your observer location to see the next 7 days of passes ≥ 10°. The values pass through the URL so the page stays shareable.

No JS? Fill the form by hand. The geolocation button needs JavaScript.